Погода Нагорный

Погода Нагорный : погода сейчас, прогноз погоды и архив. Всё, что Вы хотите узнать о погоде Нагорный!

Хотите узнать прогноз погоды Нагорный? Тогда Вам сюда: Погода Нагорный

Поиск расширенной информации на нашем сайте:

Другие новости

Новости СМИ2

Главная страница сайта

Новости сайта

02.10.2013

Напоминаем, что на нашем новом сайте вы можете получить высокодетализированные прогнозы погоды по пунктам России, СНГ и мира (включающие важные для авиации метеовеличины, такие как направление и скорость ветра, видимость, явления погоды, количество и форма облачности, нижняя и верхняя граница облачности), а также ознакомиться с разнообразными материалами по авиационной метеорологии и подборкой полезных ссылок на эту тему.

Сайт Метеоцентр.Азия посвящён разработке технологий оптимизации авиаметеорологического обслуживания, включая проектирование и перспективное создание нескольких автоматизированных авиаметеорологических систем:
- система выпуска высокодетальных прогностических карт явлений погоды для нижнего воздушного пространства по России и ближнему зарубежью;
- система верификации прогнозов TAF (выпускаемых синоптиками официальных АМСГ РФ и ближнего зарубежья) и AUTOTAF (выпускаемых сайтом Метеоцентр.Азия) - выявление ошибок, онлайн-сопоставление с фактической погодой METAR, автоматическое внесение коррективов в прогнозы при резком отклонении фактической погоды от прогноза, подсчёт оправдываемости прогнозов по элементам и в целом;
- система обработки, анализа и отображения авиаметеорологической информации для применения провайдерами метеорологической информации.

Рекомендуем: Где купить мебель ресторанов.

Погода Нагорный - сегодня

Время (UTC), дата Ветер
(°,м/с) 
Видим.   Явления Облачность Т
(°С)
Тd
(°С)
f(%) Тe
(°С)
Pmin
(гПа)
dP
(гПа)
Po
(мм)
O2
(г/м3)
Тmin Tmax R s Состояние
почвы
03 21.01.17 тихо ()   20000 м    ясно 
-24.6 -27.9 74 -25  1037.2  0.7  692  308           
06 21.01.17 080 (В) 20000 м    3/0 верхняя 
[Ci fib]
-23.6 -27.6 70 -24  1036.1  -0.5  692  307           
09 21.01.17 090 (В) 20000 м    3/0 верхняя 
[Ci fib]
-25.2 -28.4 75 -26  1037.1  0.2  692  309           
12 21.01.17 130 (ЮВ) 20000 м    3/0 верхняя 
[Ci fib]
-28.6 -31.7 75 -29  1039.5  0.6  691  312    -23.6       
15 21.01.17 тихо ()   20000 м    ясно 
-29.9 -32.4 79 -30  1039.8  -0.4  692  315           
18 21.01.17 тихо ()   20000 м    ясно 
-31.3 -33.6 80 -31  1040.3  -0.1  692  317           
21 21.01.17 тихо ()   20000 м    ясно 
-34.4 -36.8 79 -34  1040.9  -0.9  691  320           
00 22.01.17 тихо ()   20000 м    3/0 верхняя 
[Ci fib]
-34.8 -37.1 79 -35  1039.8  -1.1  690  321  -35.5      14  мокрый или
старый снег
50-90% 
03 22.01.17 тихо ()   20000 м    6/0 средняя, верхняя 
[Ac trans|Ci fib]
-25.6 -28.8 74 -26  1035.1  690  309           
06 22.01.17 020 (С) 20000 м    4/0 средняя 
[Ac trans]
-20.9 -24.9 70 -21  1031.7  -1  690  302           
09 22.01.17 050 (СВ) 20000 м    6/0 средняя 
[Ac trans]
-23 -26.3 74 -26  1033.7  0.8  690  305           
12 22.01.17 100 (В) 20000 м    3/0 верхняя 
[Ci fib]
-23.9 -27.1 75 -24  1034.9  0.7  691  307    -20.9       
15 22.01.17 тихо ()   20000 м    ясно 
-25 -27.4 80 -25  1034.7  -0.6  690  308           
18 22.01.17 тихо ()   20000 м    ясно 
-26.6 -29 80 -27  1033.7  -1.7  689  309           
21 22.01.17 тихо ()   20000 м    ясно 
-29.2 -31.6 80 -29  1037.3  2.1  691  313           
00 23.01.17 тихо ()   20000 м    3/0 средняя 
[Ac trans]
-31.9 -34.4 79 -32  1038.2  -0.4  690  317  -32.5      14  мокрый или
старый снег
50-90% 
03 23.01.17 тихо ()   20000 м    1/0 средняя 
[Ac trans]
-26.9 -30 75 -27  1035.1  -0.5  690  310           
06 23.01.17 тихо ()   20000 м    ясно 
-23.4 -27.4 70 -23  1033.6  0.1  690  306           
09 23.01.17 тихо ()   20000 м    3/0 средняя 
[Ac trans]
-24.4 -27.6 75 -24  1033.9  -0.2  690  307           
12 23.01.17 тихо ()   20000 м    ясно 
-27 -29.5 79 -27  1034.7  -0.3  690  310    -23.4       
15 23.01.17 тихо ()   20000 м    ясно 
-27.5 -30 79 -28  1033.2  -1.6  688  310           
18 23.01.17 тихо ()   20000 м    ясно 
-28.8 -31.2 80 -29  1033.9  688  312           
21 23.01.17 тихо ()   20000 м    ясно 
-30.4 -32.1 85 -30  1035.8  0.9  689  314           
00 24.01.17 тихо ()   20000 м    4/0 средняя 
[Ac trans]
-29.6 -32 80 -30  1035.4  0.1  689  313  -31      14  мокрый или
старый снег
50-90% 
03 24.01.17 тихо ()   20000 м    1/0 верхняя 
[Ci fib]
-23.5 -26.8 74 -24  1032.1  -0.3  689  305           
Время (UTC), дата Ветер
(°,м/с) 
Видим.   Явления Облачность Т
(°С)
Тd
(°С)
f(%) Тe
(°С)
Pmin
(гПа)
dP
(гПа)
Po
(мм)
O2
(г/м3)
Тmin Tmax R s Состояние
почвы

Для получения пояснительной информации подведите курсор к названию столбца.

ПОГОДА Нагорный - архив

Всё, что Вы хотите узнать о погоде Нагорный - удобно и подробно!

Выберите нужную дату (начиная с 1 января 2015* года) и нажмите кнопку "Найти".
Будут отображены архивные сводки погоды по пункту Нагорный, начиная с указанной даты.


Отображать данные в формате CSV (для использования в таблицах Excel)


Внимание! Наш архив погоды предназначен исключительно для личного некоммерческого использования в познавательных целях. Если Вам необходимы официальные справки о состоянии погоды (для производственных, юридических, коммерческих и т.п. целей), обращайтесь в органы Росгидромета.

*Примечание: данная дата относится к архиву по метеостанциям СССР (Россия, СНГ, Балтия).
Архив по метеостанциям Зарубежной Европы и Азии (кроме Китая) хранится 10 дней, по другим регионам земного шара (Китай, Африка, Америка, Австралия, Океания) - 1 день.

Нагорный - район местоположения метеостанции


Название, широта, долгота, высота метеостанции:
Нагорный 56°ш. 124.9°д. 861 м над ур. моря [Российская Федерация]

Дополнительная информация

В oтличие oт бoльшинства пoгoдных сайтoв мы публикуем пoдрoбную метеoинфoрмацию в детальнoм прoфессиoнальнoм фoрмате.

Характеристики температуры и влажнoсти вoздуха измеряются на высoте 2 м в тени вдали oт зданий и деревьев.
Скoрoсть ветра измеряется на высoте 10 м (на урoвне рoста челoвека скoрoсть ветра ниже в 1.5-2 раза). Если метеoстанция нахoдится в гoрoде или в лесу, тo скoрoсть ветра занижена на 2-4 м/с пo сравнению с oткрытым местoм. Скoрoсть ветра над акватoриями крупных рек и oзёр, а также на вершинах хoлмoв на 2-5 м/с выше, чем в oбычных услoвиях.
Атмoсфернoе давление в разных тoчках местнoсти мoжет значительнo oтличаться oт давления на метеoстанции, в зависимoсти oт услoвий рельефа (при пoдъёме на 10 м давление пoнижается примернo на 1 мм рт.ст.).